Weather in Vizhnitsa

Ukraine / Chernovtci District     48˚14′42″N   25˚10′55″E
temp.,
°C
wind,
m/s
gust,
m/s
humid.,
%
clouds,
%
prec.,
mm/h
press.,
hPa
HPBL,
m
28 november, sat
sat2823:00−1˚sse007197 0.0 102321
02:00−1˚ssw128275 0.0 102228
05:00−1˚w1184100 0.6 102145
08:00ssw1197100 2.3 102181
11:00+1˚wnw0094100 0.8 1021109
14:00nne2298100 2.3 1020146
17:00−1˚w1198100 2.2 1020115
20:00−2˚ssw1197100 2.4 102132
29 november, sun
sun2923:00−2˚ssw229398 0.1 102126
02:00−3˚sw229197 0.1 102122
05:00−4˚sw128947 0.0 102121
08:00−4˚sw118373 0.0 102121
11:00nne1171100 0.0 1021391
14:00ene2277100 0.0 1021430
17:00−3˚e1195100 0.0 102121
20:00−3˚nw009797 0.1 102221
30 november, mon
mon3023:00−3˚nnw119899 0.2 102323
02:00−3˚nnw119899 0.9 102452
05:00−3˚nnw119899 0.6 102430
08:00−4˚wnw119897 0.9 102621
11:00−1˚n118792 0.1 1027348
14:00−1˚n118393 0.2 1027419
17:00−2˚nne1187100 0.0 102872
20:00−4˚nne119298 0.1 102943
1 december, tue
tue123:00−6˚sw119440 0.0 103021
02:00−6˚s119335 0.0 102921
05:00−7˚sse11910 0.0 102921
08:00−7˚sse12880 0.0 102921
11:00−1˚e22700 0.0 1028290
14:00e23770 0.0 1026321
17:00−5˚se22940 0.0 102644
20:00−6˚sse22900 0.0 102740
2 december, wed
wed223:00−6˚sse12810 0.0 102733
02:00−6˚sse12750 0.0 102726
05:00−7˚s11720 0.0 102622
08:00−7˚sse11720 0.0 102721
11:00−2˚e12630 0.0 1026256
14:00−1˚e23760 0.0 1024324
17:00−5˚ese11960 0.0 102532
20:00−6˚sse11932 0.0 102630